Regional Weather Roundup
Issued by NWS Sioux Falls, SD

Home | Current Version | Previous Version | Text Only | Print | Product List | Glossary On
Versions: 1 2 3 4 5 6 7 8 9 10 11 12 13 14 15 16 17 18 19 20 21 22 23 24 25 26 27 28 29 30 31 32 33 34 35 36 37 38 39 40 41 42 43 44 45 46 47 48 49 50
000
ASUS43 KFSD 102310
RWRFSD

WEATHER ROUNDUP FOR SE SOUTH DAKOTA/SW MINNESOTA/NW IOWA
NATIONAL WEATHER SERVICE SIOUX FALLS SD
500 PM CST SAT DEC 10 2016

NOTE: "FAIR" INDICATES FEW OR NO CLOUDS BELOW 12,000 FEET WITH NO
SIGNIFICANT WEATHER AND OR OBSTRUCTIONS TO VISIBILITY.


SDZ038>040-050-052>070-110000-
SOUTHEAST SOUTH DAKOTA

CITY           SKY/WX    TMP DP  RH WIND       PRES   REMARKS
BROOKINGS      LGT SNOW   9   5  85 E9        30.06S VSB 1   WCI  -5
CHAMBERLAIN    CLOUDY    18  16  92 E10G16    29.93F WCI   6
HURON          LGT SNOW  13  10  88 E12       30.04F FOG     WCI  -1
MADISON        LGT SNOW  12  12 100 E15       30.03F WCI  -4
MITCHELL       CLOUDY    18  15  88 SE18      30.03F WCI   2
SIOUX FALLS    LGT SNOW  16  14  92 E16       30.05S VSB 3/4 WCI   1
WINNER         CLOUDY    20  17  88 E13       29.87S WCI   7
YANKTON        CLOUDY    23  18  80 SE13      29.99F WCI  11
$$

MNZ071-072-080-081-089-090-097-098-110000-
SOUTHWEST MINNESOTA

CITY           SKY/WX    TMP DP  RH WIND       PRES   REMARKS
FAIRMONT       LGT SNOW  13  10  88 E14       30.18F FOG     WCI  -2
JACKSON        LGT SNOW  10   9  92 E14       30.14F WCI  -5
LUVERNE        LGT SNOW  16  12  86 E16       30.08F WCI   0
MARSHALL       LGT SNOW   9   5  84 E14       30.16F FOG     WCI  -7
MONTEVIDEO     LGT SNOW   9   5  85 SE13      30.21F WCI  -7
PIPESTONE      LGT SNOW  10   7  85 SE15      30.06F WCI  -6
REDWOOD FALLS  LGT SNOW  11   5  77 E13       30.20F WCI  -4
TRACY          LGT SNOW  10   8  88 E15       30.15F WCI  -6
WINDOM         LGT SNOW  10   7  85 MISG      30.14F
WORTHINGTON    LGT SNOW  11   9  92 E17       30.09F FOG     WCI  -6
$$

IAZ001>003-012>014-020>022-031-032-NEZ013-014-SDZ071-110000-
NORTHWEST IOWA

CITY           SKY/WX    TMP DP  RH WIND       PRES   REMARKS
CHEROKEE       CLOUDY    22  20  93 SE13G18   30.10F WCI   9
DENISON        CLOUDY    23  19  86 E13       30.07F WCI  11
ESTHERVILLE    CLOUDY    15  14  95 E13       30.14F FOG     WCI   1
LE MARS        CLOUDY    23  19  86 SE10G18   30.08F WCI  12
ORANGE CITY    CLOUDY    19  19 100 SE13      30.06S WCI   7
SHELDON        LGT SNOW  18  18 100 E20       30.06F WCI   1
SIOUX CITY     CLOUDY    26  20  77 SE16      30.06F WCI  14
SPENCER        CLOUDY    18  16  92 E10       30.11F WCI   6
STORM LAKE     CLOUDY    19  19 100 SE20G26   30.08F WCI   4
$$

ABBREVIATIONS USED IN REMARKS
   TC - TEMPERATURE IN CELSIUS
  WCI - WIND CHILL INDEX
   HX - HEAT INDEX
  VSB - VISIBILITY





USA.gov is the U.S. government's official web portal to all federal, state and local government web resources and services.